Clarksville, TN

1:55 AM CST on January 17, 2017 (GMT -0600)
Outlaw

Weather History for KCKV - August, 2014

Change the Weather History Date:

Saturday, August 16, 2014

  Actual Average Record
Temperature  
Mean Temperature 76 °F 77 °F  
Max Temperature 87 °F 89 °F 107 °F (1954)
Min Temperature 68 °F 66 °F 50 °F (2004)
Degree Days  
Heating Degree Days 0 0  
Month to date heating degree days 0  
Since 1 June heating degree days 3  
Since 1 July heating degree days 0  
Cooling Degree Days 11 12  
Month to date cooling degree days 207  
Year to date cooling degree days 1050  
Since 1 June cooling degree days 901  
Growing Degree Days 26 (Base 50)    
Moisture  
Dew Point 64 °F    
Average Humidity 67    
Maximum Humidity 87    
Minimum Humidity 49    
Precipitation  
Precipitation 0.00 in 0.09 in 2.80 in (1966)
Month to date precipitation 1.60  
Year to date precipitation 31.62  
Sea Level Pressure  
Sea Level Pressure 29.98 in    
Wind  
Wind Speed 3 mph (South)    
Max Wind Speed 9 mph    
Max Gust Speed -    
Visibility 10 miles    
Events      
T = Trace of Precipitation, MM = Missing Value Source: NWS Daily Summary

Daily Weather History Graph

Daily Weather History Graph

Search for Another Location

Airport or City:

Trip Planner

Search our weather history database for the weather conditions in past years. The results will help you decide how hot, cold, wet, or windy it might be!

Date:

Astronomy

Aug. 16, 2014 Rise Set
Actual Time 6:07 AM CDT 7:39 PM CDT
Civil Twilight 5:40 AM CDT 8:06 PM CDT
Nautical Twilight 5:07 AM CDT 8:39 PM CDT
Astronomical Twilight 4:32 AM CDT 9:13 PM CDT
Moon 11:34 PM CDT (8/16) 12:41 PM CDT (8/16)
Length of Visible Light 14h 26m
Length of Day
13h 31m
Waning Gibbous, 58% of the Moon is Illuminated
Aug 16
Waning Gibbous
Aug 17
Last Quarter
Aug 25
New
Sep 2
First Quarter
Sep 8
Full

Hourly Weather History & Observations

Time (CDT) Temp. Heat Index Dew Point Humidity Pressure Visibility Wind Dir Wind Speed Gust Speed Precip Events Conditions
12:52 AM 70.0 °F - 63.0 °F 78% 29.98 in 10.0 mi Calm Calm - N/A   Clear
1:52 AM 68.0 °F - 63.0 °F 84% 29.97 in 10.0 mi ESE 4.6 mph - N/A   Clear
2:52 AM 69.1 °F - 63.0 °F 81% 29.97 in 10.0 mi SE 3.5 mph - N/A   Clear
3:52 AM 69.1 °F - 63.0 °F 81% 29.97 in 10.0 mi SE 3.5 mph - N/A   Clear
4:52 AM 68.0 °F - 64.0 °F 87% 29.97 in 10.0 mi ESE 3.5 mph - N/A   Clear
5:52 AM 68.0 °F - 64.0 °F 87% 29.97 in 9.0 mi SE 3.5 mph - N/A   Clear
6:52 AM 69.1 °F - 64.9 °F 87% 29.99 in 9.0 mi Calm Calm - N/A   Clear
7:52 AM 72.0 °F - 64.9 °F 78% 30.00 in 10.0 mi South 3.5 mph - N/A   Clear
8:52 AM 75.0 °F - 64.0 °F 69% 30.01 in 10.0 mi SW 5.8 mph - N/A   Clear
9:52 AM 75.9 °F - 64.0 °F 67% 30.03 in 10.0 mi SW 4.6 mph - N/A   Clear
10:52 AM 79.0 °F - 64.0 °F 60% 30.03 in 10.0 mi West 3.5 mph - N/A   Clear
11:52 AM 82.0 °F 83.8 °F 64.9 °F 56% 30.03 in 10.0 mi SW 5.8 mph - N/A   Clear
12:52 PM 84.0 °F 84.9 °F 63.0 °F 49% 30.01 in 10.0 mi West 8.1 mph - N/A   Partly Cloudy
1:52 PM 82.9 °F 83.7 °F 62.1 °F 49% 29.99 in 10.0 mi SSW 9.2 mph - N/A   Scattered Clouds
2:52 PM 82.0 °F 83.4 °F 64.0 °F 54% 29.98 in 10.0 mi SW 6.9 mph - 0.00 in   Clear
3:52 PM 82.9 °F 84.0 °F 63.0 °F 51% 29.97 in 10.0 mi SSW 6.9 mph - N/A   Clear
4:52 PM 82.9 °F 83.7 °F 62.1 °F 49% 29.96 in 10.0 mi SW 6.9 mph - N/A   Clear
5:52 PM 82.0 °F 83.4 °F 64.0 °F 54% 29.96 in 10.0 mi Calm Calm - N/A   Clear
6:52 PM 81.0 °F 82.5 °F 64.0 °F 56% 29.94 in 10.0 mi SSE 3.5 mph - N/A   Clear
7:52 PM 77.0 °F - 64.0 °F 64% 29.93 in 10.0 mi SE 4.6 mph - N/A   Clear
8:52 PM 75.9 °F - 64.9 °F 69% 29.94 in 10.0 mi Calm Calm - N/A   Clear
9:52 PM 75.9 °F - 66.0 °F 71% 29.96 in 10.0 mi SE 3.5 mph - N/A   Partly Cloudy
10:52 PM 75.9 °F - 66.0 °F 71% 29.95 in 10.0 mi South 4.6 mph - N/A   Mostly Cloudy